owner,sensor,date,latitude,longitude,vertical_datum,sea_water_practical_salinity,qcFlag 
NERRS,ioos:station:NOAA.NERRS:marscwq:1,2014-01-01T00:00:00Z,27.8383,-97.0503,5.41,31.8,1111122 
NERRS,ioos:station:NOAA.NERRS:marscwq:1,2014-01-01T00:30:00Z,27.8383,-97.0503,5.42,31.8,1111122 
NERRS,ioos:station:NOAA.NERRS:marscwq:1,2014-01-01T01:00:00Z,27.8383,-97.0503,5.39,31.8,1111122 
NERRS,ioos:station:NOAA.NERRS:marscwq:1,2014-01-01T01:30:00Z,27.8383,-97.0503,5.4,31.8,1111122 
NERRS,ioos:station:NOAA.NERRS:marscwq:1,2014-01-01T02:00:00Z,27.8383,-97.0503,5.38,31.8,1111122 
NERRS,ioos:station:NOAA.NERRS:marscwq:1,2014-01-01T02:30:00Z,27.8383,-97.0503,5.39,31.8,1111122 
NERRS,ioos:station:NOAA.NERRS:marscwq:1,2014-01-01T03:00:00Z,27.8383,-97.0503,5.41,31.8,1111122 
NERRS,ioos:station:NOAA.NERRS:marscwq:1,2014-01-01T04:00:00Z,27.8383,-97.0503,5.38,31.8,1111122 
NERRS,ioos:station:NOAA.NERRS:marscwq:1,2014-01-01T04:30:00Z,27.8383,-97.0503,5.4,31.8,1111122 
NERRS,ioos:station:NOAA.NERRS:marscwq:1,2014-01-01T05:00:00Z,27.8383,-97.0503,5.37,31.8,1111122 
NERRS,ioos:station:NOAA.NERRS:marscwq:1,2014-01-01T05:30:00Z,27.8383,-97.0503,5.37,31.8,1111122 
NERRS,ioos:station:NOAA.NERRS:marscwq:1,2014-01-01T06:00:00Z,27.8383,-97.0503,5.34,31.8,1111122 
NERRS,ioos:station:NOAA.NERRS:marscwq:1,2014-01-01T06:30:00Z,27.8383,-97.0503,5.34,31.8,1111122 
NERRS,ioos:station:NOAA.NERRS:marscwq:1,2014-01-01T07:00:00Z,27.8383,-97.0503,5.33,31.7,1111122 
NERRS,ioos:station:NOAA.NERRS:marscwq:1,2014-01-01T07:30:00Z,27.8383,-97.0503,5.34,31.7,1111122 
NERRS,ioos:station:NOAA.NERRS:marscwq:1,2014-01-01T08:00:00Z,27.8383,-97.0503,5.32,31.7,1111122 
NERRS,ioos:station:NOAA.NERRS:marscwq:1,2014-01-01T08:30:00Z,27.8383,-97.0503,5.28,31.7,1111122 
NERRS,ioos:station:NOAA.NERRS:marscwq:1,2014-01-01T09:00:00Z,27.8383,-97.0503,5.16,31.7,1111122 
NERRS,ioos:station:NOAA.NERRS:marscwq:1,2014-01-01T09:30:00Z,27.8383,-97.0503,5.15,31.7,1111122 
NERRS,ioos:station:NOAA.NERRS:marscwq:1,2014-01-01T10:00:00Z,27.8383,-97.0503,5.15,31.7,1111122 
NERRS,ioos:station:NOAA.NERRS:marscwq:1,2014-01-01T10:30:00Z,27.8383,-97.0503,5.03,31.7,1111122 
NERRS,ioos:station:NOAA.NERRS:marscwq:1,2014-01-01T11:00:00Z,27.8383,-97.0503,5.02,31.7,1111122 
NERRS,ioos:station:NOAA.NERRS:marscwq:1,2014-01-01T11:30:00Z,27.8383,-97.0503,4.95,31.7,1111122 
NERRS,ioos:station:NOAA.NERRS:marscwq:1,2014-01-01T12:00:00Z,27.8383,-97.0503,4.87,31.7,1111122 
NERRS,ioos:station:NOAA.NERRS:marscwq:1,2014-01-01T12:30:00Z,27.8383,-97.0503,4.87,31.7,1111122 
NERRS,ioos:station:NOAA.NERRS:marscwq:1,2014-01-01T13:00:00Z,27.8383,-97.0503,4.84,31.7,1111122 
NERRS,ioos:station:NOAA.NERRS:marscwq:1,2014-01-01T13:30:00Z,27.8383,-97.0503,4.85,31.7,1111122 
NERRS,ioos:station:NOAA.NERRS:marscwq:1,2014-01-01T14:00:00Z,27.8383,-97.0503,4.82,31.7,1111122 
NERRS,ioos:station:NOAA.NERRS:marscwq:1,2014-01-01T15:00:00Z,27.8383,-97.0503,4.83,31.7,1111122 
NERRS,ioos:station:NOAA.NERRS:marscwq:1,2014-01-01T15:30:00Z,27.8383,-97.0503,4.87,31.7,1111122 
NERRS,ioos:station:NOAA.NERRS:marscwq:1,2014-01-01T16:00:00Z,27.8383,-97.0503,4.92,31.5,1111122 
NERRS,ioos:station:NOAA.NERRS:marscwq:1,2014-01-01T16:30:00Z,27.8383,-97.0503,4.96,31.4,1111122 
NERRS,ioos:station:NOAA.NERRS:marscwq:1,2014-01-01T17:00:00Z,27.8383,-97.0503,5.03,31.3,1111122 
NERRS,ioos:station:NOAA.NERRS:marscwq:1,2014-01-01T17:30:00Z,27.8383,-97.0503,5.08,31.2,1111122 
NERRS,ioos:station:NOAA.NERRS:marscwq:1,2014-01-01T18:00:00Z,27.8383,-97.0503,5.15,31.2,1111122 
NERRS,ioos:station:NOAA.NERRS:marscwq:1,2014-01-01T18:30:00Z,27.8383,-97.0503,5.17,31.5,1111122 
NERRS,ioos:station:NOAA.NERRS:marscwq:1,2014-01-01T19:30:00Z,27.8383,-97.0503,5.33,31.4,1111122 
NERRS,ioos:station:NOAA.NERRS:marscwq:1,2014-01-01T20:30:00Z,27.8383,-97.0503,5.36,31.6,1111122 
NERRS,ioos:station:NOAA.NERRS:marscwq:1,2014-01-01T21:00:00Z,27.8383,-97.0503,5.36,31.6,1111122 
NERRS,ioos:station:NOAA.NERRS:marscwq:1,2014-01-01T21:30:00Z,27.8383,-97.0503,5.36,31.6,1111122 
NERRS,ioos:station:NOAA.NERRS:marscwq:1,2014-01-01T22:00:00Z,27.8383,-97.0503,5.38,31.6,1111122 
NERRS,ioos:station:NOAA.NERRS:marscwq:1,2014-01-01T23:00:00Z,27.8383,-97.0503,5.35,31.6,1111122 
NERRS,ioos:station:NOAA.NERRS:marscwq:1,2014-01-01T23:30:00Z,27.8383,-97.0503,5.36,31.6,1111122 
NERRS,ioos:station:NOAA.NERRS:marscwq:1,2014-01-02T00:00:00Z,27.8383,-97.0503,5.29,31.5,1111122 
NERRS,ioos:station:NOAA.NERRS:marscwq:1,2014-01-02T00:30:00Z,27.8383,-97.0503,5.34,31.5,1111122 
NERRS,ioos:station:NOAA.NERRS:marscwq:1,2014-01-02T01:00:00Z,27.8383,-97.0503,5.34,31.5,1111122 
NERRS,ioos:station:NOAA.NERRS:marscwq:1,2014-01-02T01:30:00Z,27.8383,-97.0503,5.33,31.5,1111122 
NERRS,ioos:station:NOAA.NERRS:marscwq:1,2014-01-02T02:00:00Z,27.8383,-97.0503,5.38,31.5,1111122 
NERRS,ioos:station:NOAA.NERRS:marscwq:1,2014-01-02T03:00:00Z,27.8383,-97.0503,5.37,31.5,1111122 
NERRS,ioos:station:NOAA.NERRS:marscwq:1,2014-01-02T03:30:00Z,27.8383,-97.0503,5.36,31.5,1111122 
NERRS,ioos:station:NOAA.NERRS:marscwq:1,2014-01-02T04:30:00Z,27.8383,-97.0503,5.35,31.5,1111122 
NERRS,ioos:station:NOAA.NERRS:marscwq:1,2014-01-02T05:00:00Z,27.8383,-97.0503,5.32,31.5,1111122 
NERRS,ioos:station:NOAA.NERRS:marscwq:1,2014-01-02T05:30:00Z,27.8383,-97.0503,5.34,31.5,1111122 
NERRS,ioos:station:NOAA.NERRS:marscwq:1,2014-01-02T06:30:00Z,27.8383,-97.0503,5.32,31.5,1111122 
NERRS,ioos:station:NOAA.NERRS:marscwq:1,2014-01-02T07:00:00Z,27.8383,-97.0503,5.36,31.7,1111122 
NERRS,ioos:station:NOAA.NERRS:marscwq:1,2014-01-02T07:30:00Z,27.8383,-97.0503,5.31,31.8,1111122 
NERRS,ioos:station:NOAA.NERRS:marscwq:1,2014-01-02T08:00:00Z,27.8383,-97.0503,5.33,31.9,1111122 
NERRS,ioos:station:NOAA.NERRS:marscwq:1,2014-01-02T08:30:00Z,27.8383,-97.0503,5.29,31.9,1111122 
NERRS,ioos:station:NOAA.NERRS:marscwq:1,2014-01-02T09:00:00Z,27.8383,-97.0503,5.32,31.6,1111122 
NERRS,ioos:station:NOAA.NERRS:marscwq:1,2014-01-02T09:30:00Z,27.8383,-97.0503,5.26,31.5,1111122 
NERRS,ioos:station:NOAA.NERRS:marscwq:1,2014-01-02T10:00:00Z,27.8383,-97.0503,5.2,31.6,1111122 
NERRS,ioos:station:NOAA.NERRS:marscwq:1,2014-01-02T10:30:00Z,27.8383,-97.0503,5.12,31.7,1111122 
NERRS,ioos:station:NOAA.NERRS:marscwq:1,2014-01-02T11:00:00Z,27.8383,-97.0503,5.02,31.7,1111122 
NERRS,ioos:station:NOAA.NERRS:marscwq:1,2014-01-02T11:30:00Z,27.8383,-97.0503,4.99,31.7,1111122 
NERRS,ioos:station:NOAA.NERRS:marscwq:1,2014-01-02T12:30:00Z,27.8383,-97.0503,4.89,31.6,1111122 
NERRS,ioos:station:NOAA.NERRS:marscwq:1,2014-01-02T13:00:00Z,27.8383,-97.0503,4.9,31.5,1111122 
NERRS,ioos:station:NOAA.NERRS:marscwq:1,2014-01-02T14:00:00Z,27.8383,-97.0503,4.78,31.5,1111122 
NERRS,ioos:station:NOAA.NERRS:marscwq:1,2014-01-02T15:30:00Z,27.8383,-97.0503,4.61,31.6,1111122 
NERRS,ioos:station:NOAA.NERRS:marscwq:1,2014-01-02T16:00:00Z,27.8383,-97.0503,4.88,31.7,1111122 
NERRS,ioos:station:NOAA.NERRS:marscwq:1,2014-01-02T17:00:00Z,27.8383,-97.0503,4.92,31.4,1111122 
NERRS,ioos:station:NOAA.NERRS:marscwq:1,2014-01-02T17:30:00Z,27.8383,-97.0503,4.99,31.3,1111122 
NERRS,ioos:station:NOAA.NERRS:marscwq:1,2014-01-02T18:00:00Z,27.8383,-97.0503,5.0,31.1,1111122 
NERRS,ioos:station:NOAA.NERRS:marscwq:1,2014-01-02T18:30:00Z,27.8383,-97.0503,5.07,30.9,1111122 
NERRS,ioos:station:NOAA.NERRS:marscwq:1,2014-01-02T19:00:00Z,27.8383,-97.0503,5.14,30.8,1111122 
NERRS,ioos:station:NOAA.NERRS:marscwq:1,2014-01-02T19:30:00Z,27.8383,-97.0503,5.17,30.6,1111122 
NERRS,ioos:station:NOAA.NERRS:marscwq:1,2014-01-02T20:00:00Z,27.8383,-97.0503,5.26,31.2,1111122 
NERRS,ioos:station:NOAA.NERRS:marscwq:1,2014-01-02T20:30:00Z,27.8383,-97.0503,5.31,31.4,1111122 
NERRS,ioos:station:NOAA.NERRS:marscwq:1,2014-01-02T21:00:00Z,27.8383,-97.0503,5.33,30.7,1111122 
NERRS,ioos:station:NOAA.NERRS:marscwq:1,2014-01-02T21:30:00Z,27.8383,-97.0503,5.42,30.7,1111122 
NERRS,ioos:station:NOAA.NERRS:marscwq:1,2014-01-02T22:00:00Z,27.8383,-97.0503,5.41,30.9,1111122 
NERRS,ioos:station:NOAA.NERRS:marscwq:1,2014-01-02T23:00:00Z,27.8383,-97.0503,5.42,31.4,1111122 
NERRS,ioos:station:NOAA.NERRS:marscwq:1,2014-01-03T00:00:00Z,27.8383,-97.0503,5.39,31.6,1111122 
NERRS,ioos:station:NOAA.NERRS:marscwq:1,2014-01-03T00:30:00Z,27.8383,-97.0503,5.35,31.7,1111122 
NERRS,ioos:station:NOAA.NERRS:marscwq:1,2014-01-03T01:00:00Z,27.8383,-97.0503,5.39,31.7,1111122 
NERRS,ioos:station:NOAA.NERRS:marscwq:1,2014-01-03T01:30:00Z,27.8383,-97.0503,5.43,31.7,1111122 
NERRS,ioos:station:NOAA.NERRS:marscwq:1,2014-01-03T02:00:00Z,27.8383,-97.0503,5.4,31.7,1111122 
NERRS,ioos:station:NOAA.NERRS:marscwq:1,2014-01-03T02:30:00Z,27.8383,-97.0503,5.37,31.8,1111122 
NERRS,ioos:station:NOAA.NERRS:marscwq:1,2014-01-03T03:00:00Z,27.8383,-97.0503,5.43,31.8,1111122 
NERRS,ioos:station:NOAA.NERRS:marscwq:1,2014-01-03T03:30:00Z,27.8383,-97.0503,5.4,31.8,1111122 
NERRS,ioos:station:NOAA.NERRS:marscwq:1,2014-01-03T04:00:00Z,27.8383,-97.0503,5.39,31.7,1111122 
NERRS,ioos:station:NOAA.NERRS:marscwq:1,2014-01-03T11:00:00Z,27.8383,-97.0503,5.16,31.7,1111122 
NERRS,ioos:station:NOAA.NERRS:marscwq:1,2014-01-03T11:30:00Z,27.8383,-97.0503,5.09,31.7,1111122 
NERRS,ioos:station:NOAA.NERRS:marscwq:1,2014-01-03T12:00:00Z,27.8383,-97.0503,5.02,31.7,1111122 
NERRS,ioos:station:NOAA.NERRS:marscwq:1,2014-01-03T12:30:00Z,27.8383,-97.0503,4.97,31.7,1111122 
NERRS,ioos:station:NOAA.NERRS:marscwq:1,2014-01-03T13:00:00Z,27.8383,-97.0503,4.92,31.7,1111122 
NERRS,ioos:station:NOAA.NERRS:marscwq:1,2014-01-03T13:30:00Z,27.8383,-97.0503,4.94,31.6,1111122 
NERRS,ioos:station:NOAA.NERRS:marscwq:1,2014-01-03T14:00:00Z,27.8383,-97.0503,4.87,31.4,1111122 
NERRS,ioos:station:NOAA.NERRS:marscwq:1,2014-01-03T14:30:00Z,27.8383,-97.0503,4.85,30.7,1111122 
NERRS,ioos:station:NOAA.NERRS:marscwq:1,2014-01-03T15:00:00Z,27.8383,-97.0503,4.85,30.5,1111122 
NERRS,ioos:station:NOAA.NERRS:marscwq:1,2014-01-03T15:30:00Z,27.8383,-97.0503,4.82,30.3,1111122 
NERRS,ioos:station:NOAA.NERRS:marscwq:1,2014-01-03T16:00:00Z,27.8383,-97.0503,4.85,30.1,1111122 
NERRS,ioos:station:NOAA.NERRS:marscwq:1,2014-01-03T16:30:00Z,27.8383,-97.0503,4.86,30.0,1111122 
NERRS,ioos:station:NOAA.NERRS:marscwq:1,2014-01-03T17:00:00Z,27.8383,-97.0503,4.85,29.9,1111122 
NERRS,ioos:station:NOAA.NERRS:marscwq:1,2014-01-03T17:30:00Z,27.8383,-97.0503,4.84,29.9,1111122 
NERRS,ioos:station:NOAA.NERRS:marscwq:1,2014-01-03T18:00:00Z,27.8383,-97.0503,4.91,29.8,1111122 
NERRS,ioos:station:NOAA.NERRS:marscwq:1,2014-01-03T19:00:00Z,27.8383,-97.0503,5.01,30.3,1111122 
NERRS,ioos:station:NOAA.NERRS:marscwq:1,2014-01-03T19:30:00Z,27.8383,-97.0503,5.04,30.6,1111122 
NERRS,ioos:station:NOAA.NERRS:marscwq:1,2014-01-03T20:00:00Z,27.8383,-97.0503,5.11,30.8,1111122 
NERRS,ioos:station:NOAA.NERRS:marscwq:1,2014-01-03T20:30:00Z,27.8383,-97.0503,5.18,31.0,1111122 
NERRS,ioos:station:NOAA.NERRS:marscwq:1,2014-01-03T21:00:00Z,27.8383,-97.0503,5.26,29.3,1111122 
NERRS,ioos:station:NOAA.NERRS:marscwq:1,2014-01-03T21:30:00Z,27.8383,-97.0503,5.28,30.5,1111122 
NERRS,ioos:station:NOAA.NERRS:marscwq:1,2014-01-03T22:00:00Z,27.8383,-97.0503,5.32,30.6,1111122 
NERRS,ioos:station:NOAA.NERRS:marscwq:1,2014-01-03T22:30:00Z,27.8383,-97.0503,5.32,31.1,1111122 
NERRS,ioos:station:NOAA.NERRS:marscwq:1,2014-01-03T23:00:00Z,27.8383,-97.0503,5.32,31.4,1111122 
NERRS,ioos:station:NOAA.NERRS:marscwq:1,2014-01-03T23:30:00Z,27.8383,-97.0503,5.35,31.5,1111122 
NERRS,ioos:station:NOAA.NERRS:marscwq:1,2014-01-04T00:00:00Z,27.8383,-97.0503,5.34,31.5,1111122 
NERRS,ioos:station:NOAA.NERRS:marscwq:1,2014-01-04T00:30:00Z,27.8383,-97.0503,5.32,31.5,1111122 
NERRS,ioos:station:NOAA.NERRS:marscwq:1,2014-01-04T01:00:00Z,27.8383,-97.0503,5.33,31.5,1111122 
NERRS,ioos:station:NOAA.NERRS:marscwq:1,2014-01-04T01:30:00Z,27.8383,-97.0503,5.32,31.5,1111122 
NERRS,ioos:station:NOAA.NERRS:marscwq:1,2014-01-04T02:00:00Z,27.8383,-97.0503,5.38,31.5,1111122 
NERRS,ioos:station:NOAA.NERRS:marscwq:1,2014-01-04T02:30:00Z,27.8383,-97.0503,5.37,31.5,1111122 
NERRS,ioos:station:NOAA.NERRS:marscwq:1,2014-01-04T03:00:00Z,27.8383,-97.0503,5.36,31.5,1111122 
NERRS,ioos:station:NOAA.NERRS:marscwq:1,2014-01-04T03:30:00Z,27.8383,-97.0503,5.35,31.5,1111122 
NERRS,ioos:station:NOAA.NERRS:marscwq:1,2014-01-04T04:00:00Z,27.8383,-97.0503,5.34,31.5,1111122 
NERRS,ioos:station:NOAA.NERRS:marscwq:1,2014-01-04T05:00:00Z,27.8383,-97.0503,5.35,31.5,1111122 
NERRS,ioos:station:NOAA.NERRS:marscwq:1,2014-01-04T05:30:00Z,27.8383,-97.0503,5.35,31.5,1111122 
NERRS,ioos:station:NOAA.NERRS:marscwq:1,2014-01-04T06:00:00Z,27.8383,-97.0503,5.36,31.4,1111122 
NERRS,ioos:station:NOAA.NERRS:marscwq:1,2014-01-04T06:30:00Z,27.8383,-97.0503,5.32,31.4,1111122 
NERRS,ioos:station:NOAA.NERRS:marscwq:1,2014-01-04T07:00:00Z,27.8383,-97.0503,5.33,31.4,1111122 
NERRS,ioos:station:NOAA.NERRS:marscwq:1,2014-01-04T08:00:00Z,27.8383,-97.0503,5.35,31.4,1111122 
NERRS,ioos:station:NOAA.NERRS:marscwq:1,2014-01-04T08:30:00Z,27.8383,-97.0503,5.37,31.4,1111122 
NERRS,ioos:station:NOAA.NERRS:marscwq:1,2014-01-04T09:00:00Z,27.8383,-97.0503,5.39,31.4,1111122 
NERRS,ioos:station:NOAA.NERRS:marscwq:1,2014-01-04T09:30:00Z,27.8383,-97.0503,5.4,31.4,1111122 
NERRS,ioos:station:NOAA.NERRS:marscwq:1,2014-01-04T10:00:00Z,27.8383,-97.0503,5.34,31.4,1111122 
NERRS,ioos:station:NOAA.NERRS:marscwq:1,2014-01-04T11:00:00Z,27.8383,-97.0503,5.34,31.4,1111122 
NERRS,ioos:station:NOAA.NERRS:marscwq:1,2014-01-04T12:00:00Z,27.8383,-97.0503,5.3,31.3,1111122 
NERRS,ioos:station:NOAA.NERRS:marscwq:1,2014-01-04T12:30:00Z,27.8383,-97.0503,5.28,31.3,1111122 
NERRS,ioos:station:NOAA.NERRS:marscwq:1,2014-01-04T13:00:00Z,27.8383,-97.0503,5.19,31.3,1111122 
NERRS,ioos:station:NOAA.NERRS:marscwq:1,2014-01-04T13:30:00Z,27.8383,-97.0503,5.18,31.3,1111122 
NERRS,ioos:station:NOAA.NERRS:marscwq:1,2014-01-04T14:00:00Z,27.8383,-97.0503,5.11,31.3,1111122 
NERRS,ioos:station:NOAA.NERRS:marscwq:1,2014-01-04T14:30:00Z,27.8383,-97.0503,5.08,31.3,1111122 
NERRS,ioos:station:NOAA.NERRS:marscwq:1,2014-01-04T15:00:00Z,27.8383,-97.0503,5.11,31.3,1111122 
NERRS,ioos:station:NOAA.NERRS:marscwq:1,2014-01-04T15:30:00Z,27.8383,-97.0503,5.05,31.3,1111122 
NERRS,ioos:station:NOAA.NERRS:marscwq:1,2014-01-04T17:00:00Z,27.8383,-97.0503,5.03,31.3,1111122 
NERRS,ioos:station:NOAA.NERRS:marscwq:1,2014-01-04T17:30:00Z,27.8383,-97.0503,5.01,31.4,1111122 
NERRS,ioos:station:NOAA.NERRS:marscwq:1,2014-01-04T18:30:00Z,27.8383,-97.0503,5.0,31.4,1111122 
NERRS,ioos:station:NOAA.NERRS:marscwq:1,2014-01-04T19:30:00Z,27.8383,-97.0503,5.02,31.4,1111122 
NERRS,ioos:station:NOAA.NERRS:marscwq:1,2014-01-04T20:00:00Z,27.8383,-97.0503,5.08,31.4,1111122 
NERRS,ioos:station:NOAA.NERRS:marscwq:1,2014-01-04T20:30:00Z,27.8383,-97.0503,5.2,31.4,1111122 
NERRS,ioos:station:NOAA.NERRS:marscwq:1,2014-01-04T21:00:00Z,27.8383,-97.0503,5.21,31.4,1111122 
NERRS,ioos:station:NOAA.NERRS:marscwq:1,2014-01-04T21:30:00Z,27.8383,-97.0503,5.25,31.3,1111122 
NERRS,ioos:station:NOAA.NERRS:marscwq:1,2014-01-04T22:00:00Z,27.8383,-97.0503,5.27,31.4,1111122 
NERRS,ioos:station:NOAA.NERRS:marscwq:1,2014-01-04T22:30:00Z,27.8383,-97.0503,5.32,31.4,1111122 
NERRS,ioos:station:NOAA.NERRS:marscwq:1,2014-01-04T23:00:00Z,27.8383,-97.0503,5.32,31.4,1111122 
NERRS,ioos:station:NOAA.NERRS:marscwq:1,2014-01-04T23:30:00Z,27.8383,-97.0503,5.33,31.2,1111122 
NERRS,ioos:station:NOAA.NERRS:marscwq:1,2014-01-05T00:00:00Z,27.8383,-97.0503,5.32,31.2,1111122 
NERRS,ioos:station:NOAA.NERRS:marscwq:1,2014-01-05T00:30:00Z,27.8383,-97.0503,5.3,30.9,1111122 
NERRS,ioos:station:NOAA.NERRS:marscwq:1,2014-01-05T01:00:00Z,27.8383,-97.0503,5.3,31.3,1111122 
NERRS,ioos:station:NOAA.NERRS:marscwq:1,2014-01-05T01:30:00Z,27.8383,-97.0503,5.3,31.3,1111122 
NERRS,ioos:station:NOAA.NERRS:marscwq:1,2014-01-05T02:00:00Z,27.8383,-97.0503,5.3,31.4,1111122 
NERRS,ioos:station:NOAA.NERRS:marscwq:1,2014-01-05T02:30:00Z,27.8383,-97.0503,5.29,31.4,1111122 
NERRS,ioos:station:NOAA.NERRS:marscwq:1,2014-01-05T03:00:00Z,27.8383,-97.0503,5.3,31.4,1111122 
NERRS,ioos:station:NOAA.NERRS:marscwq:1,2014-01-05T03:30:00Z,27.8383,-97.0503,5.31,31.3,1111122 
NERRS,ioos:station:NOAA.NERRS:marscwq:1,2014-01-05T04:00:00Z,27.8383,-97.0503,5.26,31.4,1111122 
NERRS,ioos:station:NOAA.NERRS:marscwq:1,2014-01-05T04:30:00Z,27.8383,-97.0503,5.27,31.5,1111122 
NERRS,ioos:station:NOAA.NERRS:marscwq:1,2014-01-05T05:00:00Z,27.8383,-97.0503,5.24,31.7,1111122 
NERRS,ioos:station:NOAA.NERRS:marscwq:1,2014-01-05T05:30:00Z,27.8383,-97.0503,5.25,31.8,1111122 
NERRS,ioos:station:NOAA.NERRS:marscwq:1,2014-01-05T06:30:00Z,27.8383,-97.0503,5.21,32.1,1111122 
NERRS,ioos:station:NOAA.NERRS:marscwq:1,2014-01-05T07:00:00Z,27.8383,-97.0503,5.22,31.9,1111122 
NERRS,ioos:station:NOAA.NERRS:marscwq:1,2014-01-05T07:30:00Z,27.8383,-97.0503,5.21,31.5,1111122 
NERRS,ioos:station:NOAA.NERRS:marscwq:1,2014-01-05T08:00:00Z,27.8383,-97.0503,5.22,31.6,1111122 
NERRS,ioos:station:NOAA.NERRS:marscwq:1,2014-01-05T08:30:00Z,27.8383,-97.0503,5.24,31.7,1111122 
NERRS,ioos:station:NOAA.NERRS:marscwq:1,2014-01-05T09:00:00Z,27.8383,-97.0503,5.28,31.9,1111122 
NERRS,ioos:station:NOAA.NERRS:marscwq:1,2014-01-05T09:30:00Z,27.8383,-97.0503,5.28,32.0,1111122 
NERRS,ioos:station:NOAA.NERRS:marscwq:1,2014-01-05T10:00:00Z,27.8383,-97.0503,5.25,31.8,1111122 
NERRS,ioos:station:NOAA.NERRS:marscwq:1,2014-01-05T10:30:00Z,27.8383,-97.0503,5.24,31.8,1111122 
NERRS,ioos:station:NOAA.NERRS:marscwq:1,2014-01-05T11:00:00Z,27.8383,-97.0503,5.24,32.0,1111122 
NERRS,ioos:station:NOAA.NERRS:marscwq:1,2014-01-05T11:30:00Z,27.8383,-97.0503,5.25,31.9,1111122 
NERRS,ioos:station:NOAA.NERRS:marscwq:1,2014-01-05T12:00:00Z,27.8383,-97.0503,5.23,32.0,1111122 
NERRS,ioos:station:NOAA.NERRS:marscwq:1,2014-01-05T12:30:00Z,27.8383,-97.0503,5.21,32.1,1111122 
NERRS,ioos:station:NOAA.NERRS:marscwq:1,2014-01-05T13:00:00Z,27.8383,-97.0503,5.12,31.9,1111122 
NERRS,ioos:station:NOAA.NERRS:marscwq:1,2014-01-05T13:30:00Z,27.8383,-97.0503,5.19,31.9,1111122 
NERRS,ioos:station:NOAA.NERRS:marscwq:1,2014-01-05T14:00:00Z,27.8383,-97.0503,5.12,32.0,1111122 
NERRS,ioos:station:NOAA.NERRS:marscwq:1,2014-01-05T14:30:00Z,27.8383,-97.0503,5.07,31.9,1111122 
NERRS,ioos:station:NOAA.NERRS:marscwq:1,2014-01-05T15:00:00Z,27.8383,-97.0503,5.08,31.9,1111122 
NERRS,ioos:station:NOAA.NERRS:marscwq:1,2014-01-05T15:30:00Z,27.8383,-97.0503,5.09,31.9,1111122 
NERRS,ioos:station:NOAA.NERRS:marscwq:1,2014-01-05T16:00:00Z,27.8383,-97.0503,5.05,31.7,1111122 
NERRS,ioos:station:NOAA.NERRS:marscwq:1,2014-01-05T16:30:00Z,27.8383,-97.0503,5.06,31.6,1111122 
NERRS,ioos:station:NOAA.NERRS:marscwq:1,2014-01-05T17:00:00Z,27.8383,-97.0503,5.02,31.5,1111122 
NERRS,ioos:station:NOAA.NERRS:marscwq:1,2014-01-05T17:30:00Z,27.8383,-97.0503,5.04,31.5,1111122 
NERRS,ioos:station:NOAA.NERRS:marscwq:1,2014-01-05T18:00:00Z,27.8383,-97.0503,5.03,31.5,1111122 
NERRS,ioos:station:NOAA.NERRS:marscwq:1,2014-01-05T18:30:00Z,27.8383,-97.0503,5.05,31.5,1111122 
NERRS,ioos:station:NOAA.NERRS:marscwq:1,2014-01-05T19:00:00Z,27.8383,-97.0503,5.02,31.6,1111122 
NERRS,ioos:station:NOAA.NERRS:marscwq:1,2014-01-05T19:30:00Z,27.8383,-97.0503,4.96,31.6,1111122 
NERRS,ioos:station:NOAA.NERRS:marscwq:1,2014-01-05T20:00:00Z,27.8383,-97.0503,5.03,31.5,1111122 
NERRS,ioos:station:NOAA.NERRS:marscwq:1,2014-01-05T20:30:00Z,27.8383,-97.0503,5.08,31.5,1111122 
NERRS,ioos:station:NOAA.NERRS:marscwq:1,2014-01-05T21:00:00Z,27.8383,-97.0503,5.12,31.5,1111122 
NERRS,ioos:station:NOAA.NERRS:marscwq:1,2014-01-05T22:00:00Z,27.8383,-97.0503,5.25,31.5,1111122 
NERRS,ioos:station:NOAA.NERRS:marscwq:1,2014-01-05T22:30:00Z,27.8383,-97.0503,5.31,31.4,1111122 
NERRS,ioos:station:NOAA.NERRS:marscwq:1,2014-01-05T23:00:00Z,27.8383,-97.0503,5.36,31.4,1111122 
NERRS,ioos:station:NOAA.NERRS:marscwq:1,2014-01-05T23:30:00Z,27.8383,-97.0503,5.37,31.4,1111122 
NERRS,ioos:station:NOAA.NERRS:marscwq:1,2014-01-06T00:00:00Z,27.8383,-97.0503,5.38,31.5,1111122 
NERRS,ioos:station:NOAA.NERRS:marscwq:1,2014-01-06T01:00:00Z,27.8383,-97.0503,5.39,31.6,1111122 
NERRS,ioos:station:NOAA.NERRS:marscwq:1,2014-01-06T01:30:00Z,27.8383,-97.0503,5.37,31.9,1111122 
NERRS,ioos:station:NOAA.NERRS:marscwq:1,2014-01-06T02:00:00Z,27.8383,-97.0503,5.38,32.0,1111122 
NERRS,ioos:station:NOAA.NERRS:marscwq:1,2014-01-06T02:30:00Z,27.8383,-97.0503,5.36,32.0,1111122 
NERRS,ioos:station:NOAA.NERRS:marscwq:1,2014-01-06T03:00:00Z,27.8383,-97.0503,5.37,32.0,1111122 
NERRS,ioos:station:NOAA.NERRS:marscwq:1,2014-01-06T03:30:00Z,27.8383,-97.0503,5.32,32.0,1111122 
NERRS,ioos:station:NOAA.NERRS:marscwq:1,2014-01-06T04:00:00Z,27.8383,-97.0503,5.35,32.0,1111122 
NERRS,ioos:station:NOAA.NERRS:marscwq:1,2014-01-06T04:30:00Z,27.8383,-97.0503,5.34,32.0,1111122 
NERRS,ioos:station:NOAA.NERRS:marscwq:1,2014-01-06T05:00:00Z,27.8383,-97.0503,5.32,32.0,1111122 
NERRS,ioos:station:NOAA.NERRS:marscwq:1,2014-01-06T05:30:00Z,27.8383,-97.0503,5.31,31.4,1111122 
NERRS,ioos:station:NOAA.NERRS:marscwq:1,2014-01-06T06:30:00Z,27.8383,-97.0503,5.23,30.8,1111122 
NERRS,ioos:station:NOAA.NERRS:marscwq:1,2014-01-06T07:00:00Z,27.8383,-97.0503,5.22,30.6,1111122 
NERRS,ioos:station:NOAA.NERRS:marscwq:1,2014-01-06T07:30:00Z,27.8383,-97.0503,5.21,30.5,1111122 
NERRS,ioos:station:NOAA.NERRS:marscwq:1,2014-01-06T08:00:00Z,27.8383,-97.0503,5.23,30.4,1111122 
NERRS,ioos:station:NOAA.NERRS:marscwq:1,2014-01-06T08:30:00Z,27.8383,-97.0503,5.23,30.3,1111122 
NERRS,ioos:station:NOAA.NERRS:marscwq:1,2014-01-06T09:30:00Z,27.8383,-97.0503,5.26,30.4,1111122 
NERRS,ioos:station:NOAA.NERRS:marscwq:1,2014-01-06T10:00:00Z,27.8383,-97.0503,5.21,30.4,1111122 
NERRS,ioos:station:NOAA.NERRS:marscwq:1,2014-01-06T10:30:00Z,27.8383,-97.0503,5.23,30.4,1111122 
NERRS,ioos:station:NOAA.NERRS:marscwq:1,2014-01-06T11:00:00Z,27.8383,-97.0503,5.19,30.3,1111122 
NERRS,ioos:station:NOAA.NERRS:marscwq:1,2014-01-06T12:00:00Z,27.8383,-97.0503,5.24,30.3,1111122 
NERRS,ioos:station:NOAA.NERRS:marscwq:1,2014-01-06T13:00:00Z,27.8383,-97.0503,5.12,30.1,1111122 
NERRS,ioos:station:NOAA.NERRS:marscwq:1,2014-01-06T13:30:00Z,27.8383,-97.0503,5.18,30.0,1111122 
NERRS,ioos:station:NOAA.NERRS:marscwq:1,2014-01-06T14:00:00Z,27.8383,-97.0503,5.25,30.0,1111122 
NERRS,ioos:station:NOAA.NERRS:marscwq:1,2014-01-06T14:30:00Z,27.8383,-97.0503,5.23,29.9,1111122 
NERRS,ioos:station:NOAA.NERRS:marscwq:1,2014-01-06T15:00:00Z,27.8383,-97.0503,5.16,29.9,1111122 
NERRS,ioos:station:NOAA.NERRS:marscwq:1,2014-01-06T15:30:00Z,27.8383,-97.0503,5.12,29.7,1111122 
NERRS,ioos:station:NOAA.NERRS:marscwq:1,2014-01-06T16:00:00Z,27.8383,-97.0503,5.03,29.7,1111122 
NERRS,ioos:station:NOAA.NERRS:marscwq:1,2014-01-06T16:30:00Z,27.8383,-97.0503,5.19,29.6,1111122 
NERRS,ioos:station:NOAA.NERRS:marscwq:1,2014-01-06T17:00:00Z,27.8383,-97.0503,5.13,29.5,1111122 
NERRS,ioos:station:NOAA.NERRS:marscwq:1,2014-01-06T17:30:00Z,27.8383,-97.0503,5.1,29.5,1111122 
NERRS,ioos:station:NOAA.NERRS:marscwq:1,2014-01-06T18:00:00Z,27.8383,-97.0503,5.1,29.4,1111122 
NERRS,ioos:station:NOAA.NERRS:marscwq:1,2014-01-06T18:30:00Z,27.8383,-97.0503,5.08,29.4,1111122 
NERRS,ioos:station:NOAA.NERRS:marscwq:1,2014-01-06T19:00:00Z,27.8383,-97.0503,5.04,29.4,1111122 
NERRS,ioos:station:NOAA.NERRS:marscwq:1,2014-01-06T19:30:00Z,27.8383,-97.0503,5.04,29.3,1111122 
NERRS,ioos:station:NOAA.NERRS:marscwq:1,2014-01-06T20:00:00Z,27.8383,-97.0503,5.02,29.8,1111122 
NERRS,ioos:station:NOAA.NERRS:marscwq:1,2014-01-06T20:30:00Z,27.8383,-97.0503,5.09,30.3,1111122 
NERRS,ioos:station:NOAA.NERRS:marscwq:1,2014-01-06T21:00:00Z,27.8383,-97.0503,5.13,30.6,1111122 
NERRS,ioos:station:NOAA.NERRS:marscwq:1,2014-01-06T21:30:00Z,27.8383,-97.0503,5.13,30.3,1111122 
NERRS,ioos:station:NOAA.NERRS:marscwq:1,2014-01-06T23:00:00Z,27.8383,-97.0503,5.29,31.2,1111122 
NERRS,ioos:station:NOAA.NERRS:marscwq:1,2014-01-06T23:30:00Z,27.8383,-97.0503,5.26,30.9,1111122 
NERRS,ioos:station:NOAA.NERRS:marscwq:1,2014-01-07T00:00:00Z,27.8383,-97.0503,5.29,30.0,1111122 
NERRS,ioos:station:NOAA.NERRS:marscwq:1,2014-01-07T00:30:00Z,27.8383,-97.0503,5.29,29.3,1111122 
NERRS,ioos:station:NOAA.NERRS:marscwq:1,2014-01-07T01:00:00Z,27.8383,-97.0503,5.26,30.7,1111122 
NERRS,ioos:station:NOAA.NERRS:marscwq:1,2014-01-07T01:30:00Z,27.8383,-97.0503,5.27,30.4,1111122 